Date,TemperatureHighF,TemperatureAvgF,TemperatureLowF,DewpointHighF,DewpointAvgF,DewpointLowF,HumidityHigh,HumidityAvg,HumidityLow,PressureMaxIn,PressureMinIn,WindSpeedMaxMPH,WindSpeedAvgMPH,GustSpeedMaxMPH,PrecipitationSumIn
2012-1-1,76.0,60.0,46.3,61.6,53.6,45.2,97,82,48,30.29,30.15,3,0,5,0.00
2012-1-2,62.6,55.9,42.6,60.2,43.2,29.6,97,66,33,30.23,30.09,4,1,5,0.04
2012-1-3,46.1,40.2,31.8,29.7,15.7,9.0,60,38,23,30.43,30.18,3,1,5,0.00
2012-1-4,56.7,39.0,25.5,26.5,20.3,9.6,83,53,16,30.47,30.31,2,0,3,0.00
2012-1-5,68.1,48.2,29.2,49.8,39.1,25.4,93,73,48,30.34,30.16,4,1,6,0.00
2012-1-6,72.3,54.3,41.9,57.8,47.6,40.6,97,81,44,30.25,30.11,2,0,4,0.00
2012-1-7,73.8,57.6,44.8,57.5,50.8,43.5,97,81,48,30.21,30.11,2,0,4,0.00
2012-1-8,77.2,59.9,44.9,57.6,49.8,43.7,97,73,41,30.26,30.16,2,0,4,0.00
2012-1-9,77.5,61.7,48.1,60.9,54.1,46.7,97,78,49,30.25,30.11,2,0,5,0.00
2012-1-10,78.5,65.2,54.5,61.9,56.8,53.1,97,76,49,30.12,29.96,3,0,5,0.00
2012-1-11,70.6,64.5,55.4,65.3,59.2,53.4,96,83,69,29.98,29.76,6,2,10,0.04
2012-1-12,75.9,63.4,54.0,60.8,57.2,52.9,98,82,56,29.94,29.83,5,1,8,0.00
2012-1-13,64.7,52.3,45.2,60.3,37.2,25.2,87,58,29,30.25,29.94,5,1,7,0.00
2012-1-14,55.9,44.5,32.6,35.1,27.9,20.9,82,55,27,30.41,30.24,2,0,5,0.00
2012-1-15,65.7,46.8,31.5,45.0,32.5,29.2,96,64,27,30.47,30.35,2,0,5,0.00
2012-1-16,71.3,52.5,37.1,50.6,43.5,32.6,95,74,46,30.49,30.35,3,1,6,0.00
2012-1-17,77.6,59.2,44.3,58.6,50.6,43.0,97,76,44,30.35,30.15,4,1,8,0.00
2012-1-18,69.7,59.0,50.5,61.8,56.4,48.6,96,91,73,30.17,29.97,3,1,5,0.33
2012-1-19,69.6,53.8,43.2,55.2,39.9,25.7,95,66,20,30.22,30.05,2,0,3,0.00
2012-1-20,76.9,57.8,40.9,54.4,46.5,38.7,97,71,35,30.21,30.11,3,1,7,0.00
2012-1-21,75.5,61.9,51.9,58.9,53.9,49.8,96,77,49,30.17,30.03,3,1,6,0.00
2012-1-22,78.8,62.5,48.2,63.6,54.0,46.8,97,77,43,30.15,30.07,2,0,3,0.00
2012-1-23,81.4,66.1,54.4,64.9,58.2,53.0,97,78,46,30.17,30.04,3,1,7,0.00
2012-1-24,79.7,67.2,56.0,65.6,59.8,54.4,96,79,51,30.19,30.10,2,0,3,0.00
2012-1-25,81.8,68.1,56.1,65.9,59.6,55.0,97,77,43,30.20,30.09,4,1,10,0.00
2012-1-26,82.6,69.9,59.0,66.6,60.6,57.4,97,75,45,30.11,29.93,5,1,9,0.00
2012-1-27,70.5,64.1,49.8,65.0,59.6,48.0,96,86,67,30.09,29.88,5,2,9,0.12
2012-1-28,71.0,55.6,42.8,55.2,47.7,41.7,97,78,45,30.21,30.07,2,0,4,0.00
2012-1-29,70.8,56.2,43.4,50.2,46.2,42.1,97,73,37,30.35,30.20,2,0,4,0.00
2012-1-30,71.7,56.4,43.1,47.1,43.0,36.8,91,65,30,30.42,30.31,3,1,7,0.00
2012-1-31,75.7,60.5,45.7,55.3,50.2,43.9,96,72,44,30.39,30.26,4,1,7,0.00
2012-2-1,78.3,66.1,57.5,59.5,55.8,53.6,90,71,45,30.29,30.13,4,1,7,0.00
2012-2-2,79.6,66.1,56.2,60.9,57.4,51.8,94,76,45,30.20,30.09,2,0,4,0.00
2012-2-3,76.6,65.9,57.0,62.3,58.6,55.9,97,79,52,30.26,30.16,4,1,8,0.00
2012-2-4,79.6,68.4,59.2,62.9,59.4,56.8,92,75,51,30.22,30.07,4,1,8,0.00
2012-2-5,84.0,69.8,59.1,67.1,62.2,57.8,97,79,47,30.10,29.97,2,0,5,0.00
2012-2-6,82.8,70.0,62.9,68.7,64.1,60.8,96,83,54,30.11,29.98,3,1,6,0.00
2012-2-7,68.3,62.6,56.4,62.8,60.0,53.8,97,91,81,30.12,30.03,2,1,4,0.00
2012-2-8,72.9,60.9,53.7,54.5,49.9,42.9,94,71,35,30.16,30.03,3,1,5,0.00
2012-2-9,67.0,58.4,51.0,54.8,50.1,43.5,94,75,62,30.20,30.09,2,1,4,0.00
2012-2-10,80.4,65.6,54.0,65.1,59.3,52.6,96,82,53,30.14,29.91,4,1,7,0.19
2012-2-11,66.4,56.3,44.9,59.9,45.1,22.4,95,69,38,30.18,29.86,6,2,12,0.01
2012-2-12,50.1,39.3,30.3,25.0,16.8,12.0,72,41,23,30.40,30.18,4,1,7,0.00
2012-2-13,64.2,45.4,27.0,39.2,30.5,22.3,95,62,24,30.32,30.13,3,0,4,0.00
2012-2-14,78.8,61.7,43.2,57.6,50.8,39.2,95,70,43,30.14,30.02,4,1,10,0.00
2012-2-15,72.2,64.6,62.5,61.7,58.5,57.2,85,81,69,30.20,30.09,2,0,4,0.00
2012-2-16,81.2,72.3,60.8,64.3,61.9,57.2,93,71,51,30.18,30.04,4,1,7,0.00
2012-2-17,74.4,68.0,63.1,67.5,65.0,61.0,96,90,76,30.09,29.99,2,0,4,0.10
2012-2-18,79.6,69.1,63.5,67.4,64.5,62.3,98,86,62,30.03,29.86,2,0,6,0.00
2012-2-19,80.6,69.0,60.1,70.6,62.8,53.6,96,82,65,29.93,29.76,8,3,14,0.00
2012-2-20,67.1,56.7,48.4,55.3,47.4,44.3,92,73,46,30.25,29.92,3,1,7,0.00
2012-2-21,74.7,60.7,46.1,56.5,50.8,44.2,96,72,48,30.26,30.10,3,0,5,0.00
2012-2-22,77.8,63.6,53.3,65.5,58.6,51.2,97,85,59,30.12,29.90,4,1,8,1.14
2012-2-23,82.5,72.8,65.6,71.9,67.8,64.4,97,85,64,29.94,29.85,5,2,8,0.02
2012-2-24,87.3,74.1,65.2,69.8,65.9,61.3,96,78,44,29.99,29.90,7,2,15,0.00
2012-2-25,72.3,60.2,50.5,69.5,40.2,29.2,91,51,26,30.29,29.99,4,1,6,0.02
2012-2-26,61.3,55.5,48.6,60.0,49.2,32.4,97,81,50,30.37,30.26,2,0,4,0.70
2012-2-27,78.4,67.6,60.9,70.6,65.0,60.0,98,92,70,30.33,30.21,4,0,7,0.41
2012-2-28,75.0,66.1,61.4,66.8,63.6,60.1,98,92,74,30.30,30.22,3,1,6,0.00
2012-2-29,85.2,71.5,61.0,69.0,64.0,60.1,98,80,49,30.24,30.07,3,1,7,0.00
2012-3-1,83.9,72.6,64.3,67.9,65.0,62.6,96,79,55,30.12,29.99,4,2,7,0.00
2012-3-2,84.6,71.5,63.5,67.5,63.8,60.0,97,80,46,30.06,29.93,4,1,7,0.00
2012-3-3,88.5,75.3,64.3,70.6,64.9,58.0,97,74,38,29.93,29.75,7,3,14,0.00
2012-3-4,76.2,60.8,45.8,69.8,42.6,21.7,93,57,20,30.23,29.59,8,2,16,0.34
2012-3-5,76.4,57.1,38.5,49.9,40.9,34.6,92,60,24,30.37,30.23,4,1,8,0.00
2012-3-6,76.1,63.4,52.3,53.7,50.3,44.0,89,64,43,30.44,30.34,5,2,15,0.00
2012-3-7,77.2,66.6,56.3,59.3,55.2,51.6,89,68,48,30.42,30.31,6,1,10,0.00
2012-3-8,86.2,70.1,56.3,65.2,59.8,52.5,97,74,36,30.31,30.15,4,1,8,0.00
2012-3-9,81.6,70.0,64.8,71.0,66.4,62.8,96,89,63,30.21,30.10,3,0,6,0.20
2012-3-10,71.5,65.9,61.6,65.0,61.7,59.1,95,87,75,30.27,30.12,4,2,10,0.05
2012-3-11,69.4,65.9,61.7,65.9,63.9,60.5,97,93,87,30.33,30.22,3,1,9,0.17
2012-3-12,81.3,69.8,60.2,61.8,59.8,57.3,91,73,47,30.32,30.21,4,1,7,0.00
2012-3-13,82.9,69.3,56.3,62.6,58.7,54.9,97,72,44,30.28,30.16,3,1,5,0.00
2012-3-14,84.0,69.9,57.9,63.5,59.9,56.5,97,73,45,30.26,30.13,3,1,6,0.00
2012-3-15,85.4,69.0,58.7,67.9,62.2,57.4,97,81,42,30.27,30.16,3,0,7,0.15
2012-3-16,84.8,70.7,57.8,66.9,60.5,56.1,98,74,38,30.25,30.13,2,0,5,0.00
2012-3-17,85.1,71.0,57.4,66.3,59.2,54.9,97,70,36,30.25,30.12,4,1,6,0.00
2012-3-18,85.4,70.5,57.1,66.2,59.3,55.7,97,71,39,30.27,30.13,4,1,5,0.00
2012-3-19,85.4,71.1,57.8,65.5,60.0,56.4,97,71,42,30.20,30.07,3,1,8,0.00
2012-3-20,84.9,72.0,59.8,65.7,61.6,58.4,97,72,44,30.14,30.02,4,1,8,0.00
2012-3-21,84.9,72.6,62.2,68.9,63.7,60.3,97,76,49,30.16,30.05,5,2,10,0.00
2012-3-22,88.2,76.0,65.6,68.2,64.0,56.2,96,70,35,30.18,30.05,4,1,10,0.00
2012-3-23,89.3,74.9,64.8,71.4,64.8,61.1,96,73,40,30.13,29.99,3,1,5,0.01
2012-3-24,85.0,72.5,63.0,67.6,63.7,60.7,95,76,53,30.03,29.89,5,2,10,0.02
2012-3-25,81.8,71.6,63.7,67.0,58.6,48.2,96,68,34,29.91,29.80,7,2,10,0.15
2012-3-26,83.3,68.7,54.6,58.0,54.8,51.7,95,66,35,30.03,29.88,2,0,5,0.00
2012-3-27,86.1,70.5,54.3,62.4,55.5,48.1,95,64,29,30.20,30.02,3,1,7,0.00
2012-3-28,85.9,72.3,59.6,66.0,60.0,53.0,97,70,34,30.20,30.05,4,1,7,0.00
2012-3-29,87.0,72.6,60.2,67.2,60.3,53.5,96,69,35,30.08,29.94,2,1,5,0.00
2012-3-30,87.7,72.8,59.5,66.7,61.4,57.4,95,71,38,30.07,29.94,3,1,7,0.00
2012-3-31,79.6,71.6,64.9,70.9,65.1,62.2,92,81,63,30.00,29.82,6,2,10,0.00
2012-4-1,87.0,71.0,61.1,72.4,64.3,60.0,97,82,44,29.94,29.84,4,1,6,0.48
2012-4-2,89.9,74.7,65.9,69.9,64.5,57.5,97,75,37,29.93,29.83,4,1,8,0.00
2012-4-3,94.2,75.6,61.4,70.3,60.5,40.1,97,67,16,29.98,29.87,3,1,6,0.00
2012-4-4,90.9,75.1,61.8,68.7,61.6,55.5,97,67,33,29.97,29.79,5,1,9,0.00
2012-4-5,87.1,75.2,68.3,67.6,64.9,62.4,90,72,47,29.84,29.71,6,1,11,0.00
2012-4-6,84.1,71.7,62.2,69.4,60.3,46.5,96,72,28,30.01,29.72,6,2,10,0.11
2012-4-7,79.8,68.1,58.6,55.5,51.7,48.5,77,58,34,30.19,30.01,3,1,8,0.00
2012-4-8,81.7,68.8,53.9,58.3,52.7,49.4,89,60,35,30.21,30.06,3,0,6,0.00
2012-4-9,85.2,70.4,56.1,59.2,54.7,50.5,91,62,31,30.11,29.97,3,1,5,0.00
2012-4-10,87.3,72.0,57.2,62.9,56.9,52.8,93,63,32,30.08,29.94,4,1,7,0.00
2012-4-11,85.3,71.9,59.0,64.2,57.4,49.4,96,65,29,30.06,29.93,4,1,6,0.00
2012-4-12,82.0,70.0,58.3,59.5,53.7,47.8,85,59,32,30.10,29.99,3,1,8,0.00
2012-4-13,85.2,70.5,58.8,63.0,57.9,52.1,93,68,33,30.17,30.03,4,1,8,0.00
2012-4-14,80.1,69.6,61.4,64.4,61.5,59.7,95,77,55,30.25,30.14,5,1,8,0.01
2012-4-15,84.1,72.7,60.9,62.1,59.4,55.7,94,66,39,30.23,30.14,4,1,10,0.00
2012-4-16,85.3,73.8,60.4,64.5,60.2,54.2,93,65,37,30.22,30.12,4,1,10,0.00
2012-4-17,86.6,74.4,60.2,63.8,58.8,54.5,94,62,35,30.19,30.03,3,1,9,0.00
2012-4-18,85.4,76.1,66.7,65.5,61.6,56.6,84,63,38,30.10,29.94,4,1,9,0.00
2012-4-19,82.6,74.6,64.1,68.5,65.3,61.4,94,74,55,29.99,29.86,3,1,6,0.00
2012-4-20,89.3,74.6,65.9,69.9,66.7,61.8,96,79,44,29.92,29.80,4,1,8,0.56
2012-4-21,80.5,69.6,65.7,69.0,66.0,63.5,97,89,63,29.86,29.58,4,1,7,0.02
2012-4-22,78.7,70.0,63.3,65.2,61.7,48.4,97,76,56,29.74,29.54,6,2,10,0.94
2012-4-23,71.7,62.3,54.5,47.9,42.6,37.9,67,50,32,29.92,29.74,6,2,11,0.00
2012-4-24,72.8,59.9,44.3,42.9,36.2,28.8,75,44,20,30.04,29.91,4,1,7,0.00
2012-4-25,82.8,65.9,47.3,55.7,49.3,42.8,93,59,32,30.13,30.02,3,1,5,0.00
2012-4-26,88.3,70.1,54.3,62.4,57.0,51.3,91,67,33,30.15,30.03,4,1,6,0.00
2012-4-27,89.0,73.2,58.3,67.2,58.8,53.2,97,66,31,30.14,30.01,2,0,5,0.00
2012-4-28,89.8,76.1,60.1,69.2,63.2,58.0,95,67,40,30.11,30.01,3,1,5,0.00
2012-4-29,87.4,76.4,66.1,71.5,65.6,60.0,97,72,41,30.13,30.03,3,1,6,0.00
2012-4-30,88.4,76.8,66.0,71.0,65.9,63.4,97,72,44,30.13,30.03,4,2,9,0.00
2012-5-1,89.3,77.5,67.4,70.9,67.6,65.4,95,74,48,30.11,30.00,4,1,9,0.00
2012-5-2,90.5,78.2,67.1,70.3,66.5,62.9,97,70,43,30.11,30.01,4,2,12,0.00
2012-5-3,90.6,79.0,67.2,70.1,66.3,60.5,96,68,38,30.12,30.01,3,1,6,0.00
2012-5-4,87.4,78.3,69.0,70.2,66.6,61.2,93,69,42,30.10,29.98,2,0,6,0.00
2012-5-5,92.0,79.5,65.6,69.2,65.5,59.1,95,66,34,30.02,29.89,3,1,6,0.00
2012-5-6,91.6,79.0,68.8,72.7,67.7,63.9,96,71,42,29.97,29.86,4,1,6,0.00
2012-5-7,90.3,74.0,66.7,71.5,67.5,64.2,96,82,44,29.93,29.85,3,0,5,0.72
2012-5-8,89.3,74.6,64.9,71.6,67.0,64.0,98,79,46,29.92,29.82,4,0,4,0.00
2012-5-9,90.4,77.8,67.9,72.4,68.5,65.7,96,75,48,29.89,29.74,5,2,9,0.01
2012-5-10,86.5,75.8,65.7,71.5,62.3,55.3,92,67,36,29.94,29.77,3,1,5,0.00
2012-5-11,88.1,75.5,63.2,66.0,60.0,55.4,94,63,33,30.13,29.92,4,1,7,0.00
2012-5-12,86.9,75.2,62.0,66.4,61.4,57.6,89,64,42,30.19,30.10,4,1,10,0.00
2012-5-13,84.0,75.2,64.7,67.2,64.1,61.6,91,70,52,30.15,30.02,4,1,8,0.00
2012-5-14,85.5,75.6,70.2,71.0,68.3,66.7,90,79,56,30.06,29.94,3,1,6,0.07
2012-5-15,91.0,78.2,68.4,71.1,67.9,64.1,95,73,45,30.03,29.90,3,1,9,0.00
2012-5-16,77.7,73.0,69.1,72.8,68.5,66.3,94,86,72,30.02,29.91,2,0,4,0.02
2012-5-17,88.2,76.1,68.3,70.4,66.8,62.0,97,75,46,29.97,29.83,2,0,4,0.02
2012-5-18,85.4,74.5,63.8,69.7,65.9,61.4,96,76,45,29.97,29.86,3,0,5,0.01
2012-5-19,86.3,75.0,66.5,69.1,65.1,61.8,95,74,48,30.03,29.91,4,1,5,0.00
2012-5-20,86.9,74.8,60.9,63.8,55.7,40.9,95,58,20,30.03,29.92,3,1,7,0.00
2012-5-21,89.2,75.7,60.0,61.4,58.5,54.8,91,59,35,29.99,29.88,3,0,7,0.00
2012-5-22,93.9,78.7,65.8,67.5,62.2,54.2,90,61,30,29.97,29.83,3,1,11,0.00
2012-5-23,91.1,79.7,66.5,72.7,66.1,59.9,95,67,37,29.93,29.81,4,0,4,0.00
2012-5-24,92.1,78.4,70.0,74.8,70.4,64.7,96,78,46,29.94,29.85,3,1,6,1.15
2012-5-25,92.9,80.0,70.0,74.7,68.7,62.7,97,72,40,30.06,29.91,3,1,9,0.00
2012-5-26,92.2,79.1,66.2,72.0,66.1,60.7,96,68,37,30.07,29.94,3,1,5,0.00
2012-5-27,89.4,78.2,69.7,73.3,67.7,63.7,90,72,47,29.98,29.79,4,1,4,0.00
2012-5-28,80.5,74.5,69.6,74.6,71.1,67.7,96,89,77,29.90,29.75,6,2,10,1.02
2012-5-29,75.2,72.9,69.7,73.0,71.0,68.0,97,94,85,29.93,29.82,4,1,8,1.28
2012-5-30,92.2,79.5,71.3,77.7,72.9,69.7,98,82,54,29.89,29.78,4,1,7,0.27
2012-5-31,94.0,80.5,72.1,76.3,71.9,66.7,97,77,47,29.92,29.81,7,1,10,0.00
2012-6-1,82.0,74.9,70.4,73.6,71.6,68.4,97,90,74,29.94,29.83,3,1,7,0.55
2012-6-2,90.0,79.5,71.2,74.2,70.1,65.3,97,75,48,29.96,29.86,5,2,9,0.00
2012-6-3,91.5,79.5,66.4,69.5,64.2,59.3,95,64,36,30.04,29.93,3,0,4,0.00
2012-6-4,89.6,79.6,67.7,74.2,69.6,65.2,93,73,51,29.97,29.81,5,2,8,0.00
2012-6-5,89.1,77.5,71.1,75.6,72.5,69.1,97,86,56,29.86,29.78,4,1,8,0.85
2012-6-6,82.8,74.6,70.6,74.6,71.4,68.0,97,90,69,29.93,29.82,6,1,10,0.27
2012-6-7,85.5,73.8,70.2,75.6,71.2,68.7,98,92,70,29.96,29.90,4,1,8,0.22
2012-6-8,78.7,73.6,69.9,75.0,72.3,69.1,98,96,86,29.97,29.90,1,0,2,0.16
2012-6-9,87.7,75.4,71.4,77.2,72.8,69.3,98,92,62,30.04,29.92,5,0,6,2.44
2012-6-10,94.1,80.1,71.9,77.8,73.8,70.2,98,83,57,30.14,29.99,3,1,8,0.19
2012-6-11,93.8,81.4,69.5,76.6,72.0,67.8,98,76,46,30.12,30.03,3,0,7,0.01
2012-6-12,93.3,82.1,72.0,75.4,71.8,69.1,91,72,49,30.09,29.92,4,1,6,0.00
2012-6-13,92.8,80.3,71.3,77.5,73.1,64.9,93,80,53,29.97,29.84,5,1,6,0.10
2012-6-14,91.6,75.7,70.8,76.3,71.3,67.1,97,87,52,30.01,29.88,4,0,5,1.36
2012-6-15,85.3,76.6,70.6,74.9,70.8,67.8,98,84,57,30.07,29.96,4,1,8,0.00
2012-6-16,86.4,77.5,68.8,72.7,68.9,65.8,96,77,53,30.08,30.00,4,1,9,0.00
2012-6-17,86.2,77.3,69.4,71.8,68.5,64.6,96,76,51,30.08,29.95,2,1,6,0.01
2012-6-18,90.3,78.2,67.2,71.2,65.9,60.0,96,69,37,30.07,29.98,3,1,7,0.00
2012-6-19,87.6,76.9,65.4,70.4,66.3,62.7,95,72,45,30.09,30.02,4,1,9,0.00
2012-6-20,86.2,76.6,71.1,73.7,70.0,66.9,96,81,59,30.07,29.99,4,1,9,0.16
2012-6-21,89.2,78.0,72.7,75.4,73.7,71.5,97,87,62,30.02,29.88,3,1,4,0.05
2012-6-22,87.8,77.1,73.6,78.5,74.0,71.7,97,91,66,29.93,29.84,3,0,8,0.20
2012-6-23,84.6,78.4,73.3,76.1,74.0,72.1,98,87,71,29.95,29.85,2,0,5,0.00
2012-6-24,78.6,75.0,73.0,75.7,73.6,71.8,98,95,89,29.95,29.71,5,2,14,5.91
2012-6-25,83.9,76.5,74.5,76.9,74.3,72.4,97,93,78,29.74,29.61,6,3,13,1.01
2012-6-26,85.6,79.4,72.0,77.8,74.6,70.6,96,86,76,29.62,29.53,6,3,11,0.67
2012-6-27,85.7,76.3,69.4,73.7,70.9,66.6,98,85,65,30.02,29.60,2,1,4,0.14
2012-6-28,89.5,77.5,63.6,70.3,64.8,58.1,98,69,36,30.09,30.00,2,0,3,0.00
2012-6-29,91.7,79.4,66.8,73.6,70.0,65.2,97,75,50,30.05,29.92,3,1,5,0.00
2012-6-30,91.7,80.0,68.8,75.1,71.4,67.3,97,77,54,30.00,29.91,3,1,7,0.00
2012-7-1,91.7,80.5,69.5,76.3,72.2,68.2,97,78,58,30.07,29.96,4,1,7,0.00
2012-7-2,93.7,81.3,73.1,76.9,73.0,69.3,96,78,53,30.08,29.98,4,1,7,0.00
2012-7-3,94.3,81.3,70.3,77.0,72.0,67.0,95,75,49,30.06,29.96,3,0,5,0.00
2012-7-4,95.2,78.2,70.5,75.6,71.3,68.0,97,82,51,30.08,29.99,9,0,9,2.03
2012-7-5,94.7,79.4,69.5,76.8,72.2,68.5,98,81,45,30.07,29.96,4,0,7,0.00
2012-7-6,95.0,82.7,73.8,76.5,73.5,69.1,96,76,44,30.05,29.96,2,0,5,0.00
2012-7-7,96.2,83.5,73.2,75.7,72.3,64.9,94,72,38,30.08,30.00,3,0,6,0.00
2012-7-8,97.5,83.0,75.5,76.9,73.5,69.0,93,75,44,30.10,29.98,2,0,4,0.00
2012-7-9,95.1,79.2,73.6,78.2,73.2,71.3,96,83,51,30.04,29.92,3,0,7,0.26
2012-7-10,93.6,80.3,72.1,77.7,73.5,70.0,98,82,52,30.04,29.94,2,0,6,0.01
2012-7-11,88.3,76.5,70.8,77.6,72.5,69.3,96,88,66,30.06,29.97,3,0,7,0.14
2012-7-12,88.4,79.2,70.8,75.4,73.1,69.9,98,83,62,30.04,29.94,2,0,7,0.00
2012-7-13,93.7,81.1,74.0,78.1,74.1,72.2,95,81,52,30.07,29.98,3,1,7,0.15
2012-7-14,92.3,82.6,73.9,77.2,73.2,69.2,96,75,52,30.11,30.01,3,1,7,0.00
2012-7-15,89.6,78.9,72.8,76.8,73.4,71.0,96,84,56,30.12,30.03,3,0,5,0.04
2012-7-16,92.6,78.2,71.7,75.4,72.6,70.1,97,85,50,30.07,29.94,3,0,5,0.92
2012-7-17,88.1,75.9,70.8,78.6,73.2,69.9,98,92,69,30.03,29.94,2,0,4,1.70
2012-7-18,85.8,76.8,72.2,76.0,72.9,70.9,96,88,71,30.11,29.98,5,1,6,0.01
2012-7-19,92.4,80.6,73.0,77.9,74.8,71.6,96,84,61,30.16,30.08,4,1,7,0.00
2012-7-20,95.4,83.3,73.7,78.8,74.9,72.7,97,78,52,30.12,30.02,3,1,4,0.00
2012-7-21,94.6,84.2,74.3,78.6,74.2,70.9,96,74,51,30.11,30.01,3,0,5,0.00
2012-7-22,93.6,81.7,75.0,79.4,74.4,70.4,96,80,56,30.17,30.07,5,1,6,0.00
2012-7-23,89.5,76.2,71.3,78.6,72.9,69.8,98,90,66,30.17,30.10,4,1,11,1.76
2012-7-24,91.2,78.9,70.9,78.8,73.7,70.3,98,85,63,30.14,30.00,6,1,9,0.03
2012-7-25,91.4,80.8,73.2,78.1,75.0,71.4,96,83,61,30.02,29.96,4,1,8,0.00
2012-7-26,94.8,83.5,74.0,77.9,75.2,72.5,96,78,54,30.02,29.95,4,1,7,0.00
2012-7-27,95.0,83.4,73.8,78.3,74.6,72.3,97,77,50,30.07,29.97,3,1,7,0.00
2012-7-28,94.1,83.8,73.9,81.3,74.8,72.4,96,76,53,30.10,29.99,3,0,4,0.03
2012-7-29,95.0,83.9,74.7,78.0,74.7,71.2,96,76,47,30.06,29.96,4,1,8,0.00
2012-7-30,87.2,76.8,71.5,78.4,73.8,70.1,96,91,73,30.04,29.96,5,1,9,0.26
2012-7-31,90.2,77.2,71.3,78.5,73.8,70.1,98,90,66,30.02,29.93,6,1,8,1.16
2012-8-1,90.3,79.4,73.1,78.5,75.0,72.5,98,88,62,29.99,29.91,4,1,7,0.00
2012-8-2,91.8,82.5,73.4,78.9,75.4,72.0,98,81,55,29.99,29.90,4,1,7,0.00
2012-8-3,93.5,80.5,73.9,77.5,74.1,71.2,97,82,54,30.04,29.92,3,0,9,0.00
2012-8-4,90.2,79.7,71.5,76.7,73.6,70.4,98,83,61,30.05,29.98,3,1,6,0.00
2012-8-5,93.1,81.6,75.1,78.6,75.1,72.7,95,82,60,30.10,30.00,3,1,8,0.00
2012-8-6,93.1,80.4,73.6,78.5,75.7,72.7,98,87,58,30.10,29.97,2,0,6,0.30
2012-8-7,90.5,79.7,72.8,78.3,74.9,72.2,99,86,65,30.03,29.96,3,0,5,0.00
2012-8-8,93.5,81.4,73.6,80.1,75.2,72.4,98,83,58,30.04,29.95,3,1,7,0.00
2012-8-9,95.9,82.4,72.3,78.0,74.1,71.1,97,78,47,30.03,29.91,3,1,6,0.00
2012-8-10,94.2,79.3,70.9,77.9,73.5,68.5,98,84,55,30.02,29.91,5,0,8,1.43
2012-8-11,91.8,80.9,76.6,76.7,74.6,71.2,93,82,57,29.99,29.90,4,0,5,0.00
2012-8-12,90.5,78.6,71.7,79.5,74.5,70.5,97,88,67,30.04,29.96,4,0,11,0.67
2012-8-13,89.9,80.9,73.3,79.8,75.6,72.5,98,85,67,30.06,29.98,2,0,5,0.00
2012-8-14,91.1,78.4,71.9,79.1,74.8,70.0,98,90,62,30.05,29.94,7,0,7,0.85
2012-8-15,93.6,80.8,71.7,79.0,74.4,71.1,99,83,55,30.04,29.94,2,0,5,0.00
2012-8-16,93.9,79.7,73.6,79.5,75.6,72.0,98,88,59,30.07,29.96,2,0,4,0.34
2012-8-17,89.3,81.2,74.1,80.1,75.4,72.7,98,84,63,30.03,29.92,3,1,4,0.02
2012-8-18,88.4,79.9,74.9,78.0,75.3,73.4,97,86,67,29.99,29.87,4,1,7,0.03
2012-8-19,90.7,78.3,73.3,80.0,75.2,72.4,98,91,66,29.97,29.88,6,1,13,0.82
2012-8-20,91.8,78.4,72.3,80.4,74.6,71.5,99,89,65,30.01,29.87,5,1,7,0.32
2012-8-21,92.4,75.4,70.1,80.1,72.9,68.6,99,93,62,30.10,29.93,4,1,8,0.79
2012-8-22,86.1,73.8,69.8,78.4,72.3,69.2,100,95,75,30.10,29.99,6,0,7,0.44
2012-8-23,84.9,76.7,71.0,77.5,73.6,70.5,99,90,70,30.10,30.02,3,0,4,0.29
2012-8-24,90.4,78.7,68.3,73.2,70.8,67.1,99,79,53,30.07,29.95,2,0,4,0.00
2012-8-25,88.3,77.7,71.8,76.4,72.8,68.8,98,86,64,30.05,29.98,4,1,7,0.00
2012-8-26,84.9,77.7,73.4,78.8,75.2,72.3,97,92,76,30.02,29.88,4,2,9,0.45
2012-8-27,80.4,77.1,73.6,78.2,75.4,72.7,98,95,89,29.89,29.78,5,2,10,0.87
2012-8-28,91.1,78.9,72.9,80.8,75.8,72.0,99,91,68,29.99,29.87,5,1,7,3.26
2012-8-29,90.6,78.5,73.1,78.6,75.2,72.8,99,91,64,30.00,29.91,5,1,8,0.06
2012-8-30,93.4,81.1,73.0,80.4,75.8,72.5,100,85,59,30.11,29.95,2,0,5,0.00
2012-8-31,91.6,81.6,74.5,79.3,76.0,73.8,99,84,60,30.19,30.09,2,0,4,0.00
2012-9-1,91.5,81.4,73.5,79.0,74.7,72.7,99,82,57,30.16,30.04,2,0,5,0.00
2012-9-2,91.2,80.7,71.2,77.4,73.1,70.5,99,79,54,30.09,29.97,2,0,4,0.00
2012-9-3,92.6,80.7,70.1,75.8,72.3,68.8,97,77,51,30.06,29.95,2,0,6,0.00
2012-9-4,93.1,81.5,71.0,75.8,72.1,65.6,98,76,42,30.02,29.91,2,0,5,0.00
2012-9-5,92.2,80.9,71.4,75.7,72.8,70.5,98,78,52,29.98,29.89,3,1,6,0.00
2012-9-6,90.6,79.3,70.6,77.7,73.5,69.4,98,83,61,30.01,29.91,6,1,9,0.00
2012-9-7,90.6,78.7,70.7,78.5,73.9,69.5,98,86,62,30.00,29.88,4,0,6,0.06
2012-9-8,90.8,79.9,72.7,78.0,74.1,71.5,98,84,60,29.94,29.84,4,1,8,0.28
2012-9-9,86.4,78.1,74.2,78.0,75.1,73.2,97,91,75,29.94,29.82,4,1,6,0.21
2012-9-10,87.3,78.9,72.5,78.4,74.1,69.4,98,86,67,30.04,29.91,2,0,4,0.00
2012-9-11,85.1,77.7,70.3,73.4,69.9,66.0,94,78,61,30.15,30.02,3,1,8,0.00
2012-9-12,85.2,75.1,68.9,75.9,70.4,66.1,98,86,61,30.15,30.08,3,0,6,0.55
2012-9-13,87.1,78.0,71.6,77.1,71.8,69.1,96,82,63,30.13,30.02,3,1,6,0.02
2012-9-14,86.6,76.4,72.0,77.1,72.8,69.8,97,89,67,30.09,30.00,3,0,6,0.16
2012-9-15,87.0,78.0,71.0,76.6,73.0,70.1,99,85,66,30.09,30.00,2,0,5,0.00
2012-9-16,89.7,78.4,73.0,76.4,73.2,69.8,97,85,59,30.07,29.97,2,0,5,0.00
2012-9-17,89.3,78.0,70.9,77.7,73.2,70.0,99,87,60,30.02,29.88,4,1,8,1.42
2012-9-18,85.1,75.2,72.4,78.6,73.8,71.5,99,96,79,29.94,29.84,6,1,6,0.47
2012-9-19,89.7,79.7,73.2,76.5,73.7,71.6,99,83,59,30.03,29.89,3,1,5,0.00
2012-9-20,86.4,77.8,70.4,75.4,72.8,69.2,97,85,62,30.05,29.94,1,0,2,0.10
2012-9-21,87.1,76.2,69.9,75.9,71.7,68.9,99,87,61,30.01,29.91,4,0,4,0.18
2012-9-22,88.2,76.6,69.7,74.4,71.1,69.1,99,85,56,30.04,29.94,2,0,4,0.00
2012-9-23,88.6,78.1,67.5,75.9,70.1,63.3,99,79,54,30.08,29.99,2,0,3,0.00
2012-9-24,84.4,73.8,62.0,66.8,61.4,56.8,96,67,40,30.11,30.01,2,0,5,0.00
2012-9-25,84.7,73.3,67.5,76.1,69.9,63.2,97,89,64,30.11,30.02,3,0,5,0.17
2012-9-26,90.6,77.7,67.0,76.4,71.2,66.4,99,83,52,30.12,30.03,2,0,5,0.00
2012-9-27,89.6,78.3,70.6,77.2,72.9,69.7,99,85,56,30.13,29.99,3,0,5,0.00
2012-9-28,89.0,77.6,71.0,76.3,73.4,70.1,99,88,63,30.07,29.94,2,0,7,0.19
2012-9-29,90.9,78.7,70.3,76.6,72.9,69.7,99,84,55,30.00,29.84,1,0,5,0.00
2012-9-30,93.3,79.2,72.6,78.0,74.2,71.7,99,86,54,29.90,29.75,3,0,6,0.08
2012-10-1,91.1,79.0,72.5,78.4,74.8,71.9,99,88,62,29.82,29.70,4,1,7,0.01
2012-10-2,86.2,78.2,73.3,77.6,74.9,72.0,97,90,74,30.01,29.78,5,1,8,0.09
2012-10-3,82.2,74.9,72.1,78.1,73.6,70.9,99,96,85,30.16,30.01,5,0,10,0.08
2012-10-4,93.1,77.5,70.1,79.2,73.4,69.7,100,89,56,30.20,30.06,5,0,16,0.55
2012-10-5,89.5,76.9,71.4,78.5,73.9,70.9,100,91,66,30.13,29.96,3,0,6,0.01
2012-10-6,88.3,77.4,70.4,77.6,73.5,69.2,100,89,67,30.00,29.87,3,0,8,0.00
2012-10-7,88.3,76.9,68.3,76.5,72.5,68.0,100,87,64,29.99,29.91,1,0,3,0.00
2012-10-8,87.2,75.5,70.8,76.9,72.8,70.0,99,92,66,30.02,29.92,3,0,6,0.27
2012-10-9,81.5,73.4,68.8,74.8,71.2,67.2,99,93,77,30.08,29.97,2,0,5,0.00
2012-10-10,82.5,72.3,65.0,70.5,66.3,64.1,98,83,55,30.13,30.03,2,0,4,0.00
2012-10-11,83.1,71.4,61.9,69.5,65.2,61.3,100,82,60,30.18,30.09,3,1,7,0.00
2012-10-12,83.4,72.0,61.3,69.4,64.0,60.0,99,78,51,30.20,30.10,3,1,7,0.00
2012-10-13,84.4,72.5,63.9,70.1,65.8,62.2,98,81,57,30.20,30.10,3,1,7,0.00
2012-10-14,87.7,75.0,64.7,73.6,69.1,63.8,99,84,60,30.14,29.99,3,1,8,0.00
2012-10-15,86.3,75.8,68.2,75.6,71.0,67.6,99,86,61,29.99,29.81,1,0,4,0.00
2012-10-16,82.1,72.9,66.7,68.3,64.0,60.4,98,76,51,29.89,29.79,2,1,5,0.00
2012-10-17,77.4,70.3,63.6,72.3,66.8,60.8,97,89,76,29.90,29.81,1,0,2,0.00
2012-10-18,88.8,75.2,66.1,73.3,68.9,65.2,99,83,55,29.89,29.78,3,1,6,0.00
2012-10-19,83.8,73.5,63.9,74.2,69.2,63.3,99,87,70,29.87,29.79,3,0,3,0.00
2012-10-20,80.3,70.7,58.8,70.0,58.5,50.4,95,68,37,29.97,29.85,2,0,4,0.00
2012-10-21,80.4,65.9,51.9,61.0,55.3,50.6,97,72,43,30.08,29.96,3,1,5,0.00
2012-10-22,83.0,69.7,58.8,67.6,62.2,56.6,98,79,54,30.11,30.01,3,1,9,0.00
2012-10-23,84.1,71.6,61.1,67.7,63.7,59.7,97,78,54,30.09,29.98,3,1,10,0.00
2012-10-24,83.9,73.5,65.7,71.6,67.4,63.4,94,82,62,30.04,29.93,3,1,6,0.01
2012-10-25,84.7,74.3,69.2,73.1,69.4,66.5,93,85,61,29.96,29.83,4,1,7,0.04
2012-10-26,83.7,75.5,70.8,71.1,68.1,62.8,93,79,54,29.83,29.65,6,3,10,0.00
2012-10-27,72.5,69.3,65.0,63.8,62.1,59.9,86,78,72,29.69,29.57,3,2,7,0.00
2012-10-28,72.6,63.2,56.2,62.1,58.2,51.7,93,84,65,29.80,29.68,5,2,11,0.00
2012-10-29,67.6,56.1,46.4,51.7,44.1,36.3,85,66,36,29.87,29.72,4,2,8,0.00
2012-10-30,65.5,54.2,44.5,46.4,37.9,31.8,85,56,31,29.95,29.82,7,2,12,0.00
2012-10-31,70.9,57.2,44.2,52.2,44.0,38.5,86,64,36,30.05,29.94,6,1,7,0.00
2012-11-1,77.6,63.8,53.3,63.9,57.4,52.2,98,81,58,30.02,29.91,5,1,9,0.00
2012-11-2,79.0,62.4,48.4,56.6,50.2,46.3,98,69,34,30.10,29.99,2,0,4,0.00
2012-11-3,85.2,66.3,53.2,68.7,59.2,52.1,98,80,46,30.12,30.03,2,0,3,0.00
2012-11-4,81.4,66.4,56.5,68.7,61.0,55.4,99,84,53,30.12,29.98,3,0,7,0.00
2012-11-5,80.3,68.6,59.1,66.8,61.2,55.2,99,80,50,30.00,29.90,2,0,6,0.00
2012-11-6,76.7,62.9,53.7,63.6,56.3,52.0,97,81,53,29.95,29.80,5,1,10,0.01
2012-11-7,64.7,56.8,50.8,54.7,48.9,44.6,96,77,51,30.00,29.85,4,1,6,0.00
2012-11-8,65.2,52.8,43.6,47.5,44.4,41.1,93,75,47,30.19,30.00,2,0,6,0.00
2012-11-9,71.5,54.2,39.5,51.3,41.8,35.6,98,69,27,30.29,30.18,2,0,3,0.00
2012-11-10,75.9,58.6,43.1,57.3,50.4,42.0,98,77,47,30.33,30.24,2,0,3,0.00
2012-11-11,80.8,65.8,52.4,64.9,58.4,51.6,98,80,47,30.31,30.22,3,1,6,0.00
2012-11-12,81.3,69.3,59.4,68.7,63.4,58.5,99,83,55,30.25,30.16,3,0,7,0.00
2012-11-13,80.2,69.0,59.5,67.9,62.9,58.6,99,83,54,30.19,30.09,1,0,3,0.00
2012-11-14,71.5,65.9,62.0,66.1,63.5,61.1,98,92,82,30.20,30.11,3,1,5,0.00
2012-11-15,62.0,59.7,56.7,61.2,58.5,54.9,98,96,91,30.17,30.09,2,0,3,0.00
2012-11-16,64.9,58.6,55.5,56.4,54.6,53.1,94,87,73,30.20,30.11,2,1,6,0.00
2012-11-17,74.0,62.1,56.4,65.2,58.2,54.2,94,88,71,30.19,30.10,4,2,8,0.00
2012-11-18,67.6,58.6,50.2,58.6,55.0,49.1,96,88,72,30.22,30.14,3,1,5,0.00
2012-11-19,58.5,55.5,49.3,54.6,52.7,48.1,98,90,86,30.18,30.10,2,1,5,0.00
2012-11-20,71.2,61.1,53.0,59.3,56.0,51.6,95,84,65,30.10,29.99,3,1,7,0.00
2012-11-21,71.4,58.9,48.4,55.8,50.8,45.8,97,77,45,30.10,30.00,2,1,5,0.00
2012-11-22,69.8,54.5,42.0,48.3,40.6,34.0,95,65,30,30.19,30.09,4,1,7,0.00
2012-11-23,71.2,52.5,36.5,47.7,41.4,34.7,95,70,35,30.22,30.08,2,0,3,0.00
2012-11-24,70.9,55.4,45.7,57.1,49.2,43.6,99,82,47,30.12,29.99,3,0,7,0.00
2012-11-25,67.6,49.8,36.6,44.0,37.4,26.9,96,69,22,30.19,30.09,1,0,3,0.00
2012-11-26,76.7,54.9,37.6,57.0,46.2,36.1,97,76,43,30.25,30.13,2,0,4,0.00
2012-11-27,79.0,65.2,53.3,64.8,59.1,51.6,98,82,56,30.20,30.07,3,0,6,0.00
2012-11-28,62.5,58.3,53.4,59.9,55.6,51.6,97,91,80,30.30,30.12,3,1,5,0.00
2012-11-29,75.6,60.7,50.8,60.1,53.6,49.3,96,80,50,30.30,30.23,3,1,5,0.00
2012-11-30,76.9,61.8,51.4,61.9,55.4,50.6,99,82,51,30.28,30.17,3,0,7,0.00
2012-12-1,75.2,64.0,53.3,64.5,59.0,52.2,98,85,62,30.27,30.19,3,0,4,0.00
2012-12-2,81.0,66.6,56.0,65.5,60.4,55.3,99,83,48,30.30,30.19,3,0,8,0.00
2012-12-3,79.8,67.6,59.3,66.1,61.4,58.2,98,83,51,30.29,30.19,2,0,3,0.00
2012-12-4,78.4,64.7,54.5,63.4,57.3,53.7,99,79,45,30.31,30.19,2,0,6,0.00
2012-12-5,75.8,63.2,54.1,63.0,58.3,52.9,98,85,60,30.21,30.06,3,0,4,0.00
2012-12-6,78.6,66.7,58.3,66.6,61.9,57.2,99,86,61,30.07,29.94,2,0,6,0.00
2012-12-7,76.3,66.1,61.9,66.9,63.1,61.0,98,91,72,30.03,29.93,2,0,4,0.00
2012-12-8,76.6,66.1,59.4,69.4,64.0,58.8,99,93,76,30.07,29.98,2,0,4,0.00
2012-12-9,78.5,68.3,61.2,69.5,65.6,60.1,99,92,73,30.09,30.00,2,0,3,0.00
2012-12-10,79.0,67.7,56.3,72.7,65.7,55.7,99,94,77,30.02,29.82,4,1,6,0.26
2012-12-11,78.4,71.2,66.2,71.1,68.3,65.6,99,91,76,30.03,29.86,2,0,4,0.00
2012-12-12,77.5,68.6,61.8,71.6,67.1,61.2,99,95,80,30.09,29.97,2,0,3,0.06
2012-12-13,61.9,57.2,52.2,61.3,55.6,50.5,98,94,90,30.23,30.07,3,1,6,0.00
2012-12-14,63.4,55.5,50.7,58.8,53.5,49.9,99,93,84,30.26,30.13,3,1,5,0.00
2012-12-15,78.8,64.0,53.4,66.5,59.2,52.6,99,86,60,30.18,30.06,3,0,5,0.00
2012-12-16,79.5,65.2,56.0,67.1,60.4,55.2,99,86,58,30.07,29.94,2,0,6,0.00
2012-12-17,81.7,67.9,58.1,67.5,61.9,57.3,99,83,57,29.98,29.85,5,1,8,0.00
2012-12-19,64.0,58.3,55.3,53.8,52.1,49.6,90,80,64,30.08,30.06,0,0,0,0.00
2012-12-20,81.4,67.4,53.3,68.5,61.5,52.1,99,83,58,30.07,29.89,4,2,0,0.24
2012-12-21,64.0,50.9,38.8,60.4,36.7,25.5,88,60,27,30.22,29.94,5,2,0,0.00
2012-12-22,61.5,44.4,31.9,33.0,27.0,23.1,89,54,24,30.31,30.19,1,0,0,0.00
2012-12-23,66.7,47.3,31.1,43.1,34.0,27.3,97,67,24,30.28,30.15,1,0,0,0.00
2012-12-24,68.1,56.6,45.7,54.1,48.4,42.2,93,75,53,30.15,29.99,3,0,0,0.00
2012-12-25,74.5,62.3,52.4,62.1,57.0,50.7,97,84,61,30.02,29.89,3,0,8,0.00
2012-12-26,73.8,62.6,46.3,68.9,57.5,38.6,95,84,68,30.00,29.76,8,3,24,0.27
2012-12-27,61.2,43.5,34.1,42.3,37.0,31.8,94,79,49,30.14,30.00,2,0,4,0.00
2012-12-28,68.1,52.9,35.9,60.6,46.0,34.6,98,80,49,30.12,29.91,2,0,6,0.42
2012-12-29,71.7,64.2,46.7,70.6,59.4,41.0,98,85,55,30.18,29.83,5,2,10,0.16
2012-12-30,54.2,44.7,35.6,41.2,36.4,31.4,89,74,51,30.39,30.18,3,1,5,0.00
2012-12-31,72.7,55.2,40.0,58.0,49.1,38.4,96,82,57,30.38,30.20,3,0,6,0.00
2013-1-1,73.3,55.9,50.6,60.7,53.4,49.5,98,92,62,30.23,30.13,4,0,8,0.00